When you browse on this site, cookies collect data to enhance your experience and personalize the content and advertising you see.
Visit our Privacy Policy to learn more. By continuing to use the site, you agree to this use of cookies and data.
  • In Deutschland
  • Länderverzeichnis
  • Für 7 Tage
  • Wassertemperatur
  • Satellitenkarten
  • Wetterkarte
  • Widgets
  • user-avatar
    Anmelden

    Stündliche Wetter Abowian

    Heute, 19 Juli, Freitag

    Zeit Temperatur Niederschläge Wind Luftdruck Luftfeuchtigkeit
    00:00 +25°C° 0 mm 2 m/S 669 mmHg 39%
    01:00 +25°C° 0 mm 2 m/S 669 mmHg 41%
    02:00 +24°C° 0 mm 2 m/S 669 mmHg 44%
    03:00 +23°C° 0 mm 2 m/S 668 mmHg 49%
    04:00 +24°C° 0 mm 2 m/S 669 mmHg 49%
    05:00 +24°C° 0 mm 2 m/S 669 mmHg 50%
    06:00 +25°C° 0 mm 2 m/S 670 mmHg 51%
    07:00 +27°C° 0 mm 2 m/S 670 mmHg 46%
    08:00 +29°C° 0 mm 2 m/S 671 mmHg 42%
    09:00 +31°C° 0 mm 1 m/S 671 mmHg 37%
    10:00 +32°C° 0 mm 2 m/S 671 mmHg 33%
    11:00 +35°C° 0 mm 2 m/S 671 mmHg 29%
    12:00 +36°C° 0 mm 3 m/S 672 mmHg 25%
    13:00 +36°C° 0.1 mm 2 m/S 672 mmHg 23%
    14:00 +37°C° 0.1 mm 2 m/S 671 mmHg 22%
    15:00 +37°C° 0.1 mm 2 m/S 671 mmHg 21%
    16:00 +36°C° 0 mm 3 m/S 671 mmHg 27%
    17:00 +35°C° 0 mm 4 m/S 671 mmHg 32%
    18:00 +34°C° 0 mm 5 m/S 671 mmHg 38%
    19:00 +30°C° 0 mm 5 m/S 671 mmHg 45%
    20:00 +28°C° 0 mm 4 m/S 671 mmHg 51%
    21:00 +26°C° 0 mm 4 m/S 671 mmHg 58%
    22:00 +25°C° 0 mm 4 m/S 671 mmHg 60%
    23:00 +24°C° 0 mm 3 m/S 672 mmHg 62%

    Morgen, 20 Juli, Samstag

    Zeit Temperatur Niederschläge Wind Luftdruck Luftfeuchtigkeit
    00:00 +24°C° 0 mm 3 m/S 672 mmHg 64%
    01:00 +23°C° 0 mm 2 m/S 672 mmHg 66%
    02:00 +23°C° 0 mm 2 m/S 672 mmHg 67%
    03:00 +21°C° 0 mm 2 m/S 672 mmHg 69%
    04:00 +23°C° 0 mm 2 m/S 672 mmHg 68%
    05:00 +23°C° 0 mm 2 m/S 673 mmHg 66%
    06:00 +24°C° 0 mm 2 m/S 673 mmHg 65%
    07:00 +26°C° 0 mm 2 m/S 673 mmHg 59%
    08:00 +28°C° 0 mm 2 m/S 674 mmHg 53%
    09:00 +30°C° 0 mm 2 m/S 674 mmHg 46%
    10:00 +31°C° 0 mm 2 m/S 674 mmHg 42%
    11:00 +34°C° 0 mm 2 m/S 674 mmHg 38%
    12:00 +35°C° 0 mm 3 m/S 674 mmHg 33%
    13:00 +36°C° 0 mm 3 m/S 674 mmHg 31%
    14:00 +37°C° 0 mm 3 m/S 674 mmHg 30%
    15:00 +37°C° 0 mm 4 m/S 674 mmHg 28%
    16:00 +36°C° 0 mm 4 m/S 673 mmHg 33%
    17:00 +36°C° 0 mm 5 m/S 673 mmHg 37%
    18:00 +35°C° 0 mm 5 m/S 673 mmHg 42%
    19:00 +32°C° 0 mm 5 m/S 673 mmHg 47%
    20:00 +29°C° 0 mm 5 m/S 673 mmHg 53%
    21:00 +27°C° 0 mm 5 m/S 674 mmHg 58%
    22:00 +27°C° 0 mm 4 m/S 674 mmHg 60%
    23:00 +26°C° 0 mm 3 m/S 674 mmHg 61%

    übermorgen, 21 Juli, Sonntag

    Zeit Temperatur Niederschläge Wind Luftdruck Luftfeuchtigkeit
    00:00 +25°C° 0 mm 3 m/S 674 mmHg 63%
    01:00 +24°C° 0 mm 2 m/S 673 mmHg 63%
    02:00 +24°C° 0 mm 2 m/S 673 mmHg 64%
    03:00 +23°C° 0 mm 2 m/S 673 mmHg 65%
    04:00 +24°C° 0 mm 2 m/S 673 mmHg 62%
    05:00 +24°C° 0 mm 2 m/S 673 mmHg 60%
    06:00 +25°C° 0 mm 1 m/S 674 mmHg 58%
    07:00 +27°C° 0 mm 2 m/S 674 mmHg 50%
    08:00 +29°C° 0 mm 2 m/S 674 mmHg 43%
    09:00 +32°C° 0 mm 2 m/S 674 mmHg 36%
    10:00 +34°C° 0 mm 3 m/S 674 mmHg 32%
    11:00 +36°C° 0 mm 3 m/S 675 mmHg 28%
    12:00 +38°C° 0 mm 4 m/S 675 mmHg 23%
    13:00 +38°C° 0 mm 4 m/S 674 mmHg 22%
    14:00 +40°C° 0 mm 5 m/S 674 mmHg 21%
    15:00 +41°C° 0 mm 6 m/S 673 mmHg 20%
    16:00 +40°C° 0 mm 6 m/S 673 mmHg 25%
    17:00 +39°C° 0 mm 5 m/S 673 mmHg 30%
    18:00 +37°C° 0 mm 5 m/S 673 mmHg 35%
    19:00 +35°C° 0 mm 5 m/S 673 mmHg 37%
    20:00 +33°C° 0 mm 4 m/S 673 mmHg 40%
    21:00 +30°C° 0 mm 4 m/S 673 mmHg 42%
    22:00 +28°C° 0 mm 3 m/S 673 mmHg 45%
    23:00 +27°C° 0 mm 3 m/S 672 mmHg 48%

    22 Juli, Montag

    Zeit Temperatur Niederschläge Wind Luftdruck Luftfeuchtigkeit
    00:00 +26°C° 0 mm 3 m/S 672 mmHg 51%
    01:00 +25°C° 0 mm 3 m/S 672 mmHg 53%
    02:00 +25°C° 0 mm 2 m/S 672 mmHg 54%
    03:00 +24°C° 0 mm 2 m/S 671 mmHg 56%
    04:00 +25°C° 0 mm 2 m/S 671 mmHg 55%
    05:00 +25°C° 0 mm 2 m/S 672 mmHg 53%
    06:00 +26°C° 0 mm 2 m/S 672 mmHg 52%
    07:00 +28°C° 0 mm 2 m/S 672 mmHg 46%
    08:00 +31°C° 0 mm 2 m/S 672 mmHg 39%
    09:00 +34°C° 0 mm 2 m/S 673 mmHg 33%
    10:00 +35°C° 0 mm 2 m/S 673 mmHg 30%
    11:00 +37°C° 0 mm 2 m/S 672 mmHg 26%
    12:00 +39°C° 0 mm 2 m/S 672 mmHg 23%
    13:00 +39°C° 0 mm 2 m/S 672 mmHg 21%
    14:00 +40°C° 0 mm 2 m/S 672 mmHg 20%
    15:00 +41°C° 0 mm 2 m/S 672 mmHg 19%
    16:00 +40°C° 0 mm 3 m/S 671 mmHg 23%
    17:00 +40°C° 0 mm 4 m/S 671 mmHg 28%
    18:00 +39°C° 0 mm 5 m/S 671 mmHg 32%
    19:00 +36°C° 0 mm 5 m/S 671 mmHg 38%
    20:00 +33°C° 0 mm 4 m/S 671 mmHg 44%
    21:00 +29°C° 0 mm 4 m/S 670 mmHg 50%
    22:00 +28°C° 0 mm 4 m/S 670 mmHg 52%
    23:00 +27°C° 0 mm 3 m/S 670 mmHg 55%

    23 Juli, Dienstag

    Zeit Temperatur Niederschläge Wind Luftdruck Luftfeuchtigkeit
    00:00 +26°C° 0 mm 3 m/S 670 mmHg 57%
    01:00 +25°C° 0 mm 3 m/S 670 mmHg 58%
    02:00 +25°C° 0 mm 2 m/S 670 mmHg 60%
    03:00 +24°C° 0 mm 2 m/S 669 mmHg 61%
    04:00 +24°C° 0 mm 2 m/S 670 mmHg 60%
    05:00 +25°C° 0 mm 2 m/S 670 mmHg 58%
    06:00 +25°C° 0 mm 2 m/S 670 mmHg 57%
    07:00 +27°C° 0 mm 1 m/S 670 mmHg 51%
    08:00 +30°C° 0 mm 1 m/S 670 mmHg 46%
    09:00 +32°C° 0 mm 1 m/S 671 mmHg 40%
    10:00 +34°C° 0 mm 2 m/S 670 mmHg 36%
    11:00 +36°C° 0 mm 2 m/S 670 mmHg 32%
    12:00 +37°C° 0 mm 2 m/S 670 mmHg 28%
    13:00 +38°C° 0.1 mm 2 m/S 670 mmHg 28%
    14:00 +39°C° 0.1 mm 2 m/S 670 mmHg 27%
    15:00 +39°C° 0.1 mm 2 m/S 669 mmHg 27%
    16:00 +38°C° 0 mm 3 m/S 669 mmHg 32%
    17:00 +36°C° 0 mm 5 m/S 669 mmHg 37%
    18:00 +35°C° 0 mm 6 m/S 669 mmHg 42%
    19:00 +33°C° 0 mm 5 m/S 669 mmHg 47%
    20:00 +29°C° 0 mm 5 m/S 669 mmHg 53%
    21:00 +27°C° 0 mm 4 m/S 669 mmHg 58%
    22:00 +26°C° 0.1 mm 3 m/S 669 mmHg 60%
    23:00 +26°C° 0.1 mm 3 m/S 669 mmHg 61%

    24 Juli, Mittwoch

    Zeit Temperatur Niederschläge Wind Luftdruck Luftfeuchtigkeit
    00:00 +25°C° 0.1 mm 3 m/S 669 mmHg 62%
    01:00 +25°C° 0 mm 2 m/S 669 mmHg 63%
    02:00 +24°C° 0 mm 2 m/S 669 mmHg 64%
    03:00 +24°C° 0 mm 2 m/S 669 mmHg 65%
    04:00 +24°C° 0 mm 1 m/S 669 mmHg 64%
    05:00 +25°C° 0 mm 1 m/S 669 mmHg 62%
    06:00 +25°C° 0 mm 1 m/S 669 mmHg 61%
    07:00 +27°C° 0 mm 1 m/S 669 mmHg 55%
    08:00 +29°C° 0 mm 1 m/S 670 mmHg 48%
    09:00 +31°C° 0 mm 2 m/S 670 mmHg 42%
    10:00 +34°C° 0 mm 2 m/S 670 mmHg 35%
    11:00 +36°C° 0 mm 3 m/S 670 mmHg 29%
    12:00 +38°C° 0 mm 3 m/S 670 mmHg 22%
    13:00 +40°C° 0 mm 4 m/S 670 mmHg 19%
    14:00 +41°C° 0 mm 4 m/S 670 mmHg 16%
    15:00 +42°C° 0 mm 4 m/S 670 mmHg 14%
    16:00 +42°C° 0 mm 5 m/S 670 mmHg 14%
    17:00 +41°C° 0 mm 5 m/S 670 mmHg 15%
    18:00 +41°C° 0 mm 6 m/S 670 mmHg 15%
    19:00 +36°C° 0 mm 5 m/S 669 mmHg 20%
    20:00 +33°C° 0 mm 4 m/S 669 mmHg 24%
    21:00 +29°C° 0 mm 3 m/S 669 mmHg 29%
    22:00 +28°C° 0 mm 3 m/S 669 mmHg 31%
    23:00 +27°C° 0 mm 3 m/S 669 mmHg 33%
    Mehr zeigen